AVA9845 SKBO-SKAR

Flight info

Callsign AVA9845
Flight time 0h 25m
Altitude 18000
Route ISNOX2S ISNOX ISNOX1K
Aircraft A320/M-SDE3FGHIRWY/LB1

Departure

Time 2026-05-04 21:58
Airport El Dorado International Airport (SKBO)

Arrival

Time 2026-05-04 22:24
Airport El Eden Airport (SKAR)
Time Latitude Longitude Altitude Speed Heading
2026-05-04 21:25 4.69718 -74.14445 8373 ft 0 kts 37°
2026-05-04 21:45 4.69718 -74.14446 8373 ft 1 kts 37°
2026-05-04 21:45 4.69700 -74.14459 8372 ft 2 kts 37°
2026-05-04 21:46 4.69680 -74.14469 8374 ft 4 kts 350°
2026-05-04 21:46 4.69658 -74.14457 8374 ft 4 kts 311°
2026-05-04 21:46 4.69647 -74.14444 8373 ft 4 kts 307°
2026-05-04 21:46 4.69655 -74.14454 8374 ft 4 kts 307°
2026-05-04 21:47 4.69671 -74.14476 8373 ft 4 kts 307°
2026-05-04 21:47 4.69687 -74.14497 8373 ft 4 kts 307°
2026-05-04 21:47 4.69704 -74.14519 8372 ft 4 kts 307°
2026-05-04 21:47 4.69720 -74.14541 8373 ft 4 kts 307°
2026-05-04 21:48 4.69737 -74.14562 8372 ft 4 kts 307°
2026-05-04 21:48 4.69753 -74.14584 8373 ft 4 kts 307°
2026-05-04 21:48 4.69769 -74.14605 8373 ft 4 kts 307°
2026-05-04 21:48 4.69786 -74.14627 8373 ft 4 kts 307°
2026-05-04 21:49 4.69791 -74.14634 8373 ft 0 kts 307°
2026-05-04 21:52 4.69805 -74.14652 8373 ft 6 kts 308°
2026-05-04 21:52 4.69839 -74.14697 8373 ft 11 kts 306°
2026-05-04 21:52 4.69891 -74.14770 8373 ft 15 kts 305°
2026-05-04 21:53 4.69942 -74.14866 8372 ft 15 kts 263°
2026-05-04 21:53 4.69894 -74.14918 8370 ft 11 kts 212°
2026-05-04 21:53 4.69866 -74.14988 8373 ft 15 kts 302°
2026-05-04 21:53 4.69934 -74.15079 8373 ft 18 kts 308°
2026-05-04 21:54 4.70017 -74.15186 8373 ft 21 kts 308°
2026-05-04 21:54 4.70107 -74.15306 8373 ft 23 kts 305°
2026-05-04 21:54 4.70208 -74.15441 8373 ft 24 kts 307°
2026-05-04 21:54 4.70310 -74.15575 8373 ft 24 kts 308°
2026-05-04 21:55 4.70412 -74.15713 8373 ft 26 kts 308°
2026-05-04 21:55 4.70524 -74.15860 8373 ft 28 kts 307°
2026-05-04 21:55 4.70644 -74.16017 8372 ft 29 kts 308°
2026-05-04 21:55 4.70770 -74.16179 8374 ft 30 kts 308°
2026-05-04 21:56 4.70895 -74.16348 8372 ft 30 kts 306°
2026-05-04 21:56 4.71023 -74.16518 8373 ft 30 kts 308°
2026-05-04 21:56 4.71153 -74.16685 8371 ft 30 kts 308°
2026-05-04 21:56 4.71250 -74.16835 8374 ft 15 kts 267°
2026-05-04 21:57 4.71186 -74.16891 8372 ft 13 kts 188°
2026-05-04 21:57 4.71049 -74.16878 8373 ft 28 kts 158°
2026-05-04 21:57 4.70868 -74.16667 8373 ft 65 kts 127°
2026-05-04 21:57 4.70471 -74.16144 8373 ft 122 kts 127°
2026-05-04 21:58 4.69859 -74.15334 8374 ft 168 kts 127°
2026-05-04 21:58 4.69102 -74.14349 8912 ft 179 kts 125°
2026-05-04 21:58 4.68255 -74.13442 9647 ft 181 kts 152°
2026-05-04 21:58 4.67026 -74.13306 10162 ft 185 kts 200°
2026-05-04 21:59 4.66035 -74.14107 10652 ft 187 kts 235°
2026-05-04 21:59 4.65313 -74.15197 11135 ft 188 kts 234°
2026-05-04 21:59 4.64583 -74.16294 11551 ft 193 kts 234°
2026-05-04 21:59 4.63788 -74.17472 11700 ft 215 kts 234°
2026-05-04 22:00 4.62905 -74.18774 11828 ft 237 kts 234°
2026-05-04 22:00 4.61941 -74.20208 12012 ft 258 kts 238°
2026-05-04 22:00 4.61341 -74.21913 12593 ft 264 kts 261°
2026-05-04 22:00 4.61121 -74.23749 13247 ft 268 kts 263°
2026-05-04 22:01 4.60909 -74.25683 13509 ft 291 kts 263°
2026-05-04 22:01 4.60687 -74.27779 13707 ft 314 kts 263°
2026-05-04 22:01 4.60451 -74.30038 13878 ft 337 kts 263°
2026-05-04 22:01 4.60200 -74.32452 13995 ft 360 kts 263°
2026-05-04 22:02 4.59936 -74.35010 14206 ft 376 kts 264°
2026-05-04 22:02 4.59666 -74.37638 14647 ft 382 kts 264°
2026-05-04 22:02 4.59390 -74.40307 15185 ft 387 kts 264°
2026-05-04 22:02 4.59110 -74.42999 15728 ft 391 kts 264°
2026-05-04 22:03 4.58827 -74.45719 16257 ft 395 kts 264°
2026-05-04 22:03 4.58542 -74.48471 16779 ft 399 kts 264°
2026-05-04 22:03 4.58253 -74.51248 17291 ft 403 kts 264°
2026-05-04 22:03 4.57959 -74.54051 17606 ft 406 kts 264°
2026-05-04 22:04 4.57662 -74.56881 17690 ft 414 kts 264°
2026-05-04 22:04 4.57360 -74.59747 17696 ft 422 kts 264°
2026-05-04 22:04 4.57052 -74.62676 17681 ft 423 kts 264°
2026-05-04 22:04 4.56744 -74.65613 17651 ft 424 kts 264°
2026-05-04 22:05 4.56438 -74.68549 17644 ft 424 kts 264°
2026-05-04 22:05 4.56130 -74.71485 17636 ft 424 kts 264°
2026-05-04 22:05 4.55824 -74.74423 17615 ft 424 kts 264°
2026-05-04 22:05 4.55517 -74.77360 17611 ft 424 kts 264°
2026-05-04 22:06 4.55209 -74.80293 17620 ft 424 kts 264°
2026-05-04 22:06 4.54901 -74.83233 17620 ft 424 kts 264°
2026-05-04 22:06 4.54595 -74.86170 17622 ft 424 kts 264°
2026-05-04 22:06 4.54289 -74.89106 17623 ft 424 kts 264°
2026-05-04 22:07 4.53982 -74.92042 17629 ft 424 kts 264°
2026-05-04 22:07 4.53674 -74.94983 17636 ft 424 kts 264°
2026-05-04 22:07 4.53368 -74.97919 17645 ft 424 kts 264°
2026-05-04 22:07 4.53060 -75.00857 17662 ft 424 kts 264°
2026-05-04 22:08 4.52748 -75.03791 17661 ft 424 kts 264°
2026-05-04 22:08 4.52438 -75.06729 17664 ft 424 kts 264°
2026-05-04 22:08 4.52130 -75.09665 17659 ft 423 kts 264°
2026-05-04 22:08 4.51822 -75.12595 17659 ft 423 kts 264°
2026-05-04 22:09 4.51512 -75.15529 17656 ft 423 kts 264°
2026-05-04 22:09 4.51203 -75.18459 17660 ft 423 kts 264°
2026-05-04 22:09 4.50894 -75.21378 17345 ft 419 kts 264°
2026-05-04 22:09 4.50590 -75.24259 16975 ft 410 kts 264°
2026-05-04 22:10 4.50297 -75.27050 16858 ft 395 kts 264°
2026-05-04 22:10 4.50013 -75.29746 16687 ft 383 kts 264°
2026-05-04 22:10 4.49735 -75.32384 16342 ft 378 kts 264°
2026-05-04 22:10 4.49464 -75.34963 15962 ft 375 kts 264°
2026-05-04 22:11 4.49191 -75.37562 15797 ft 364 kts 264°
2026-05-04 22:11 4.48933 -75.40016 15691 ft 353 kts 264°
2026-05-04 22:11 4.48678 -75.42424 15586 ft 343 kts 264°
2026-05-04 22:11 4.48428 -75.44769 15479 ft 334 kts 263°
2026-05-04 22:12 4.48184 -75.47055 15365 ft 325 kts 263°
2026-05-04 22:12 4.47949 -75.49282 15246 ft 318 kts 263°
2026-05-04 22:12 4.47722 -75.51460 15113 ft 310 kts 264°
2026-05-04 22:12 4.47502 -75.53582 15028 ft 301 kts 263°
2026-05-04 22:13 4.47366 -75.55632 15033 ft 289 kts 272°
2026-05-04 22:13 4.47606 -75.57605 14929 ft 282 kts 280°
2026-05-04 22:13 4.47935 -75.59517 14806 ft 275 kts 280°
2026-05-04 22:13 4.48248 -75.61380 14681 ft 267 kts 280°
2026-05-04 22:14 4.48553 -75.63198 14522 ft 262 kts 280°
2026-05-04 22:14 4.49145 -75.64894 14285 ft 258 kts 307°
2026-05-04 22:14 4.50457 -75.66058 14049 ft 251 kts 338°
2026-05-04 22:14 4.52122 -75.66411 13782 ft 244 kts
2026-05-04 22:15 4.53769 -75.66080 13495 ft 242 kts 16°
2026-05-04 22:15 4.55404 -75.65676 13211 ft 242 kts 17°
2026-05-04 22:15 4.57033 -75.65273 12938 ft 241 kts 16°
2026-05-04 22:15 4.58664 -75.64871 12675 ft 241 kts 16°
2026-05-04 22:16 4.60285 -75.64474 12467 ft 237 kts 17°
2026-05-04 22:16 4.61859 -75.64091 12164 ft 231 kts 16°
2026-05-04 22:16 4.63424 -75.63709 11766 ft 232 kts 15°
2026-05-04 22:16 4.64987 -75.63325 11372 ft 231 kts 16°
2026-05-04 22:17 4.66545 -75.62959 10969 ft 230 kts 10°
2026-05-04 22:17 4.68137 -75.63016 10580 ft 230 kts 347°
2026-05-04 22:17 4.69529 -75.63751 10209 ft 228 kts 313°
2026-05-04 22:17 4.70202 -75.65150 9804 ft 224 kts 275°
2026-05-04 22:18 4.69929 -75.66654 9392 ft 221 kts 245°
2026-05-04 22:18 4.69312 -75.68065 8965 ft 221 kts 246°
2026-05-04 22:18 4.68724 -75.69486 8615 ft 221 kts 244°
2026-05-04 22:18 4.67836 -75.70713 8239 ft 221 kts 221°
2026-05-04 22:19 4.66530 -75.71484 7956 ft 214 kts 197°
2026-05-04 22:19 4.65136 -75.71836 7734 ft 201 kts 193°
2026-05-04 22:19 4.63797 -75.72188 7417 ft 196 kts 195°
2026-05-04 22:19 4.62500 -75.72533 7142 ft 190 kts 194°
2026-05-04 22:20 4.61236 -75.72843 6899 ft 184 kts 193°
2026-05-04 22:20 4.60007 -75.73136 6672 ft 179 kts 193°
2026-05-04 22:20 4.58807 -75.73419 6457 ft 175 kts 193°
2026-05-04 22:20 4.57631 -75.73696 6228 ft 172 kts 193°
2026-05-04 22:21 4.56474 -75.73969 6003 ft 169 kts 193°
2026-05-04 22:21 4.55339 -75.74236 5785 ft 166 kts 193°
2026-05-04 22:21 4.54238 -75.74495 5580 ft 157 kts 193°
2026-05-04 22:21 4.53194 -75.74741 5367 ft 152 kts 193°
2026-05-04 22:22 4.52174 -75.74981 5177 ft 150 kts 193°
2026-05-04 22:22 4.51165 -75.75219 4987 ft 148 kts 193°
2026-05-04 22:22 4.50166 -75.75454 4807 ft 147 kts 193°
2026-05-04 22:22 4.49172 -75.75687 4606 ft 146 kts 193°
2026-05-04 22:23 4.48185 -75.75910 4423 ft 145 kts 193°
2026-05-04 22:23 4.47206 -75.76156 4229 ft 145 kts 194°
2026-05-04 22:23 4.46225 -75.76380 4028 ft 145 kts 193°
2026-05-04 22:23 4.45344 -75.76593 3984 ft 98 kts 193°
2026-05-04 22:24 4.44935 -75.76692 3979 ft 42 kts 193°
2026-05-04 22:24 4.44665 -75.76756 3979 ft 38 kts 194°
2026-05-04 22:24 4.44419 -75.76816 3977 ft 35 kts 193°
2026-05-04 22:24 4.44225 -75.76861 3982 ft 15 kts 188°
2026-05-04 22:25 4.44164 -75.76867 3981 ft 5 kts 281°
2026-05-04 22:25 4.44225 -75.76863 3982 ft 17 kts 13°
2026-05-04 22:25 4.44395 -75.76821 3976 ft 28 kts 13°
2026-05-04 22:25 4.44588 -75.76775 3974 ft 29 kts 12°
2026-05-04 22:26 4.44781 -75.76729 3980 ft 29 kts 13°
2026-05-04 22:26 4.44981 -75.76681 3981 ft 30 kts 13°
2026-05-04 22:26 4.45165 -75.76637 3984 ft 19 kts
2026-05-04 22:26 4.45255 -75.76700 3984 ft 13 kts 348°
2026-05-04 22:27 4.45329 -75.76685 3986 ft 10 kts 13°
2026-05-04 22:27 4.45352 -75.76716 3984 ft 5 kts 288°
2026-05-04 22:27 4.45355 -75.76729 3982 ft 0 kts 283°